www.pogodaiklimat.ru

Погода и климат >> Архив погоды >> Россия >> Саратовская область >> Александров Гай


АРХИВ ПОГОДЫ в Александровом Гае

Время (UTC), дата Ветер
(напр.,м/с)
 
Видим.   Явления Облачность Т
(С)
Тd
(С)
f
(%)
Тe
(С)
Тes
(С)
Комфортность P
(гПа)
Po
(гПа)
Тmin
(С)
Tmax
(С)
R
(мм)
R24
(мм)
S
(см)
09 15.08 ЮВ 2 10 км ясно +31.8 +10.1 26 +31 +45 жарко 1014.8 1012.0
12 15.08 В 2 10 км ясно +33.1 +11.3 26 +33 +40 жарко 1014.1 1011.3
15 15.08 ЮВ 1 10 км ясно +31.0 +11.2 30 +31 +32 жарко 1013.8 1011.0 +33.4
18 15.08 В 2 10 км ясно +23.4 +12.8 51 +26 +26 жарко 1014.8 1011.9
21 15.08 ЮВ 1 10 км ясно +20.0 +11.7 59 +23 +23 комфорт 1015.3 1012.4
00 16.08 ЮВ 2 10 км ясно +18.0 +11.9 68 +19 +19 тепло 1015.5 1012.6
03 16.08 ЮВ 2 10 км ясно +18.5 +10.8 61 +19 +20 по сезону 1015.5 1012.6 +16.8
06 16.08 Ю 4 10 км 3/0
[Ci sp]
+29.2 +8.8 28 +29 +35 жарко 1015.5 1012.6
09 16.08 Ю 5 10 км 3/1 1500 м
[Cu hum Ci sp]
+32.4 +10.5 26 +32 +38 жарко 1014.5 1011.7
12 16.08 Ю 5
{10}
10 км 3/1 1500 м
[Cu hum Ci sp]
+33.0 +10.3 25 +32 +36 жарко 1013.1 1010.3
15 16.08 Ю 3
{10}
10 км 5/0
[Ac As Ci fib]
+30.8 +8.1 24 +30 +30 жарко 1012.5 1009.7 +33.3
18 16.08 ЮВ 2 10 км 3/0
[Ac As Ci fib]
+22.2 +9.5 44 +24 +24 комфорт 1013.1 1010.2
21 16.08 Ю 4 10 км 6/0
[Ac As Ci sp]
+22.7 +5.1 32 +23 +23 комфорт 1013.8 1010.9
00 17.08 Ю 3 10 км ясно +16.6 +6.3 51 +16 +16 по сезону 1014.1 1011.1
03 17.08 ЮВ 2 10 км 6/0
[Ac As Ci fib]
+16.0 +7.2 56 +16 +17 прохладно 1014.3 1011.3 +14.0
06 17.08 ЮВ 4 10 км 3/0
[Ci fib]
+28.8 +8.0 27 +28 +34 жарко 1014.5 1011.7
09 17.08 Ю 5
{11}
10 км 3/0
[Ci fib]
+33.7 +4.4 16 +31 +38 жарко 1013.4 1010.6
12 17.08 Ю 5
{12}
10 км 5/0
[Ci fib]
+35.0 +2.8 13 +32 +35 жарко 1012.3 1009.5
15 17.08 Ю 3
{10}
10 км 8/0
[Ci sp]
+32.2 +3.1 16 +30 +30 жарко 1011.8 1009.0 +35.2
18 17.08 Ю 4 10 км 8/0
[Ac As Ci fib]
+26.4 +4.9 25 +26 +26 жарко 1012.8 1009.9
21 17.08 Ю 2 10 км 8/0
[Ac und]
+22.7 +6.9 36 +23 +23 комфорт 1013.3 1010.4
00 18.08 ЮВ 2 10 км 9/0
[Ac As]
+21.2 +7.2 40 +22 +22 комфорт 1014.0 1011.1
03 18.08 ЮВ 2 10 км 9/0
[Ac As]
+21.5 +8.3 43 +23 +23 комфорт 1014.3 1011.4 +20.7
06 18.08 ЮВ 3 10 км 9/9 840 м
[Sc]
+28.2 +8.4 29 +28 +29 жарко 1014.9 1012.1
09 18.08 Ю 5
{10}
10 км 9/9 870 м
[Sc]
+31.7 +6.6 21 +30 +31 жарко 1014.5 1011.7
12 18.08 Ю 6-11
{10}
10 км 6/0
[Ac trans Ci sp]
+35.6 +4.7 15 +33 +35 жарко 1014.4 1011.6
15 18.08 Ю 4
{13}
10 км 4/0
[Ci sp]
+33.5 +5.6 18 +31 +32 жарко 1014.5 1011.7 +35.7
18 18.08 В 1 10 км 3/0
[Ci sp]
+24.7 +8.3 35 +25 +25 комфорт 1015.8 1012.9
21 18.08 ЮВ 2 10 км ясно +21.1 +6.7 39 +22 +22 комфорт 1016.6 1013.7
00 19.08 ЮВ 1 10 км 3/0
[Ac trans]
+19.7 +8.2 47 +22 +22 комфорт 1017.0 1014.1
03 19.08 В 1 10 км 8/0
[Ac cast Ci sp]
+19.7 +9.1 50 +22 +22 комфорт 1017.9 1015.0 +18.3
06 19.08 ЮВ 3 10 км 6/4 1000 м
[Cu med, cong Ci sp]
+30.6 +8.1 25 +30 +34 жарко 1017.6 1014.8
09 19.08 Ю 5
{12}
10 км 6/4 1000 м
[Cu med, cong Ci sp]
+37.6 +6.7 15 +35 +39 очень
жарко
1017.2 1014.4
12 19.08 ЮЗ 3
{13}
10 км 8/6 1000 м
[Cu med, cong Ac As]
+35.3 +6.1 16 +33 +34 жарко 1017.2 1014.5
15 19.08 В 1 10 км 8/0
[Ac As Ci sp]
+33.4 +11.4 26 +33 +33 жарко 1017.2 1014.4 +37.8
18 19.08 ЮВ 3 10 км 10/0
[As op]
+28.9 +8.4 28 +28 +28 жарко 1017.8 1015.0
21 19.08 Ю 3 10 км 8/0
[Ac trans]
+26.5 +6.7 28 +26 +26 жарко 1018.3 1015.4
00 20.08 Ю 2 10 км 6/0
[Ac trans]
+20.1 +7.3 43 +22 +22 комфорт 1019.2 1016.2
03 20.08 Ю 2 10 км 8/6 1000 м
[Cu med, cong Ac lent Ci sp]
+20.3 +8.6 47 +22 +22 комфорт 1019.8 1016.9 +18.5
06 20.08 Ю 3 10 км 4/0
[Ac cast Ci fib]
+33.3 +7.5 20 +32 +37 жарко 1020.0 1017.2
09 20.08 ЮЗ 4 10 км 3/0
[Ci sp]
+37.2 +6.2 15 +35 +43 очень
жарко
1019.2 1016.4
12 20.08 ЮЗ 4 10 км 3/0
[Ci sp]
+38.5 +3.8 12 +35 +40 очень
жарко
1017.6 1014.8
15 20.08 ЮЗ 1 10 км 1/0
[Ci sp]
+37.1 +5.1 14 +34 +35 очень
жарко
1016.8 1014.0 +38.9
18 20.08 В 1 10 км ясно +23.4 +10.4 44 +25 +25 комфорт 1017.0 1014.1
21 20.08 СЗ 1 10 км ясно +20.1 +8.4 47 +22 +22 комфорт 1016.7 1013.8
00 21.08 С 1 10 км 3/0
[Ci sp]
+18.9 +7.3 47 +21 +21 комфорт 1016.0 1013.1
03 21.08 С 2 10 км 4/0
[Ac As Ci sp]
+19.4 +7.7 47 +21 +21 комфорт 1016.6 1013.7 +18.7
06 21.08 С 3 10 км 1/0
[Ci fib]
+30.7 +12.0 32 +31 +38 жарко 1016.6 1013.8
09 21.08 С 2 10 км ясно +35.8 +14.5 28 +37 +50 душно 1016.0 1013.2
12 21.08 С 6-11
{10}
10 км 4/4 1000 м
[Cu med, cong]
+35.1 +14.6 29 +36 +38 очень
жарко
1015.1 1012.3
15 21.08 СВ 6
{12}
10 км 1/0
[Ac lent]
+32.6 +12.0 28 +33 +33 жарко 1015.3 1012.5 +37.1
18 21.08 СВ 6
{11}
10 км ясно +27.2 +13.3 42 +29 +29 жарко 1016.9 1014.1
21 21.08 СВ 4
{10}
10 км 6/0
[Ac trans]
+24.0 +13.6 52 +26 +26 жарко 1017.8 1014.9
00 22.08 СВ 3 10 км ясно +20.9 +15.0 69 +24 +24 комфорт 1018.1 1015.2
03 22.08 СВ 4 10 км ясно +18.9 +14.9 78 +20 +20 тепло 1019.1 1016.1 +18.7
06 22.08 СВ 4 10 км ясно +26.3 +14.9 49 +29 +34 жарко 1019.0 1016.2

 

Местоположение метеостанции Александров Гай (Саратовская область, Россия): широта 50.15 долгота 48.55 высота над уровнем моря 25 м.

В архиве по умолчанию представлена погода в Александровом Гае за последнюю неделю. Архивные данные за месяц целиком и за предыдущие месяцы, начиная с января 2011 года, Вы можете получить, выбрав интересующий диапазон дат из раскрывающегося списка и нажав кнопку "Ввод!".


*Определитесь, кто Вы:
робот инопланетянин человек

Внимание! Время в таблицах - всемирное. Для получения местного времени необходимо прибавить поправку, которая равна 4 ч.

Смотрите также архив погоды в соседних городах и на ближайших метеорологических станциях:

Погода в Новоузенске (Саратовская область, Россия) (43 км)
Погода в Казталовке (Западно-Казахстанская область, Казахстан) (45 км)
Погода в Жалпактале (Западно-Казахстанская область, Казахстан) (85 км)
Погода в Палласовке (Волгоградская область, Россия) (120 км)
Погода в Жанаказане (Западно-Казахстанская область, Казахстан) (133 км)
Погода в Ершове (Саратовская область, Россия) (137 км)
Погода в Красном Куте (Саратовская область, Россия) (143 км)
Погода в Озинках (Саратовская область, Россия) (143 км)
Погода в Жанибеке (Западно-Казахстанская область, Казахстан) (151 км)
Погода в Жангала (Западно-Казахстанская область, Казахстан) (163 км)

Пояснения к столбцам:

Ветер - указаны скорость ветра в м/с - средняя за 10 мин, порывы в срок и между сроками (в фигурных скобках) и направление, откуда дует ветер: С - северный, СВ - северо-восточный, В - восточный, ЮВ - юго-восточный, Ю - южный, ЮЗ - юго-западный, З - западный, СЗ - северо-западный.
Видимость - горизонтальная дальность видимости в метрах или километрах. При видимости от 1 до 10 км при отсутствии осадков обычно наблюдается дымка, при ухудшении видимости до 1 км и менее - туман. В сухую погоду видимость может ухудшаться дымом, пылью или мглою.
Явления - указаны атмосферные явления, наблюдавшиеся в срок или в последний час перед сроком; фигурными скобками обозначены явления, наблюдавшиеся между сроками (за 1-3 часа до срока); квадратными скобками обозначены град или гололедные отложения с указанием их диаметра в мм.
Облачность - указаны через наклонную черту общая и нижняя облачность в баллах и высота нижней границы облаков в метрах; квадратными скобками обозначены формы облаков: Ci - перистые, Cs - перисто-слоистые, Cc - перисто-кучевые, Ac - высококучевые, As - высокослоистые, Sc - слоисто-кучевые, Ns - слоисто-дождевые, Cu - кучевые, Cb - кучево-дождевые. Подробнее классификацию облаков см. в Атласе облаков (PDF).
T - Температура воздуха - температура, измеренная на высоте 2 м над землей.
Td - Температура точки росы - температура, при понижении до которой содержащийся в воздухе водяной пар достигнет насыщения.
f - Относительная влажность воздуха - влажноcть воздуха, измеренная на высоте 2 м над землей.
Te - Эффективная температура - температура, которую ощущает одетый по сезону человек в тени. Характеристика душности погоды. При расчете учитывается влияние влажности воздуха и скорости ветра на теплоощущения человека.
Tes - Эффективная температура на солнце - температура, которую ощущает человек, с поправкой на солнечный нагрев. Характеристика знойности погоды. Зависит от высоты солнца над горизонтом, облачности и скорости ветра. Ночью, в пасмурную погоду, а также при ветре 12 м/с и более поправка равна нулю.
P - Атмосферное давление - приведенное к уровню моря атмосферное давление.
Po - Атмосферное давление - измеренное на уровне метеостанции атмосферное давление.
Tmin - Минимальная температура - минимум температуры воздуха на высоте 2 м над землей.
Tmax - Максимальная температура - максимум температуры воздуха на высоте 2 м над землей.
R - Количество осадков - Количество выпавших осадков за период времени, мм. При наведении курсора мыши на число - период времени, за который выпало указанное количество осадков.
R24 - Количество осадков - Количество выпавших осадков за 24 часа, мм.
S - Снежный покров - Высота снежного покрова, см. При наведении курсора мыши на число - состояние снежного покрова и степень покрытия местности в баллах.